Weather History for Point Mugu, CA

Change the Weather History Date:

Saturday, January 12, 2013

  Actual Average Record
Temperature  
Mean Temperature 46 °F -  
Max Temperature 57 °F 61 °F 82 °F (2009)
Min Temperature 36 °F 44 °F 35 °F (2007)
Degree Days  
Heating Degree Days 18    
Moisture  
Dew Point 39 °F    
Average Humidity 80    
Maximum Humidity 86    
Minimum Humidity 76    
Precipitation  
Precipitation 0.00 in - - ()
Sea Level Pressure  
Sea Level Pressure 30.13 in    
Wind  
Wind Speed 6 mph (NNE)    
Max Wind Speed 12 mph    
Max Gust Speed 16 mph    
Visibility 7 miles    
Events      
Averages and records for this station are not official NWS values.
T = Trace of Precipitation, MM = Missing Value Source: NWS Daily Summary

Daily Weather History Graph

Daily Weather History Graph

Search for Another Location

Airport:

Trip Planner

Search our weather history database for the weather conditions in past years. The results will help you decide how hot, cold, wet, or windy it might be!

Date:

Astronomy

Jan. 12, 2013 Rise Set
Actual Time 7:02 AM PST 5:07 PM PST
Civil Twilight 6:35 AM PST 5:35 PM PST
Nautical Twilight 6:04 AM PST 6:05 PM PST
Astronomical Twilight 5:34 AM PST 6:36 PM PST
Moon 7:29 AM PST (1/12) 6:36 PM PST (1/12)
Length of Visible Light 10h 59m
Length of Day
10h 05m
New Moon, 2% of the Moon is Illuminated
Jan 12
New Moon
Jan 18
First Quarter
Jan 26
Full
Feb 3
Last Quarter
Feb 9
New

Hourly Weather History & Observations

Time (PST) Temp. Windchill Dew Point Humidity Pressure Visibility Wind Dir Wind Speed Gust Speed Precip Events Conditions
12:54 AM 39.0 °F 34.8 °F 32.0 °F 76% 30.10 in - North 5.8 mph - N/A   Clear
1:54 AM 37.9 °F 32.1 °F 32.0 °F 79% 30.11 in - North 8.1 mph - N/A   Clear
2:15 AM - - - N/A% - - North - - N/A   Unknown
2:54 AM 37.9 °F 33.5 °F 32.0 °F 79% 30.10 in - North 5.8 mph - N/A   Clear
3:54 AM 36.0 °F 31.1 °F 30.0 °F 79% 30.10 in - North 5.8 mph - N/A   Clear
4:54 AM 36.0 °F 32.1 °F 30.0 °F 79% 30.11 in - North 4.6 mph - N/A   Clear
5:54 AM 39.0 °F 33.4 °F 32.0 °F 76% 30.14 in 7.0 mi North 8.1 mph - N/A   Partly Cloudy
6:54 AM 37.9 °F 32.7 °F 32.0 °F 79% 30.15 in 7.0 mi NNE 6.9 mph - N/A   Partly Cloudy
7:54 AM 39.9 °F 35.1 °F 34.0 °F 79% 30.17 in 7.0 mi North 6.9 mph - N/A   Scattered Clouds
8:54 AM 48.0 °F - 41.0 °F 77% 30.18 in 7.0 mi NNE 4.6 mph - N/A   Partly Cloudy
9:54 AM 53.1 °F - 48.0 °F 83% 30.19 in 7.0 mi NE 8.1 mph - N/A   Partly Cloudy
10:54 AM 55.9 °F - 50.0 °F 80% 30.17 in 7.0 mi NE 11.5 mph 16.1 mph N/A   Scattered Clouds
11:54 AM 57.9 °F - 51.1 °F 78% 30.14 in 7.0 mi NE 4.6 mph - N/A   Partly Cloudy
12:54 PM 57.0 °F - 51.1 °F 81% 30.12 in 7.0 mi South 11.5 mph - N/A   Partly Cloudy
1:54 PM 55.9 °F - 50.0 °F 80% 30.12 in 7.0 mi WSW 5.8 mph - N/A   Partly Cloudy
2:54 PM 55.0 °F - 50.0 °F 83% 30.12 in 7.0 mi SW 6.9 mph - N/A   Partly Cloudy
3:54 PM 54.0 °F - 48.9 °F 83% 30.12 in 7.0 mi West 10.4 mph - N/A   Clear
4:54 PM 50.0 °F - 45.0 °F 83% 30.12 in 7.0 mi West 5.8 mph - N/A   Clear
5:54 PM 48.0 °F - 43.0 °F 83% 30.11 in 7.0 mi Calm Calm - N/A   Clear
6:54 PM 44.1 °F 42.5 °F 37.0 °F 76% 30.11 in 7.0 mi East 3.5 mph - N/A   Clear
7:54 PM 42.1 °F 39.2 °F 35.1 °F 76% 30.11 in 7.0 mi ENE 4.6 mph - N/A   Clear
8:54 PM 41.0 °F 37.1 °F 35.1 °F 79% 30.11 in 7.0 mi North 5.8 mph - N/A   Clear
9:54 PM 39.9 °F 35.8 °F 33.1 °F 77% 30.11 in 7.0 mi NNE 5.8 mph - N/A   Clear
10:54 PM 39.0 °F 34.0 °F 35.1 °F 86% 30.12 in - North 6.9 mph - N/A   Clear
11:54 PM 39.9 °F 34.5 °F 33.1 °F 77% 30.11 in - NNE 8.1 mph - N/A   Clear